Regional Weather Roundup
Issued by NWS Grand Forks, ND

Home | Current Version | Previous Version | Graphics & Text | Print | Product List | Glossary On
Versions: 1 2 3 4 5 6 7 8 9 10 11 12 13 14 15 16 17 18 19 20 21 22 23 24 25 26 27 28 29 30 31 32 33 34 35 36 37 38 39 40 41 42 43 44 45 46 47 48 49 50
000
ASUS43 KFGF 231310
RWRFGF
PRAIRIE TO PINES  WEATHER ROUNDUP
NATIONAL WEATHER SERVICE EASTERN NORTH DAKOTA/GRAND FORKS ND
800 AM CDT THU OCT 23 2014

 **SATELLITE DATA USED TO AUGMENT SKY COVER AT AUTOMATED STATIONS**
 *****  WEATHER ACROSS EASTERN NORTH DAKOTA  *****

CITY           SKY/WX    TMP DP  RH WIND       PRES   REMARKS
GRAND FORKS    PTCLDY    41  38  89 SW3       29.84S
GRAND FRKS AFB CLEAR     45  42  90 W9        29.85R
GRAND FRKS NWS   N/A     41 N/A N/A SW5         N/A
DEVILS LAKE    CLEAR     45  34  65 W8        29.84S
FARGO          CLEAR     43  39  86 S8        29.91S
WAHPETON ARPT  SUNNY     36  34  93 SE5       29.94R
$$

 ***** WEATHER ACROSS CENTRAL AND WESTERN NORTH DAKOTA  *****

CITY           SKY/WX    TMP DP  RH WIND       PRES   REMARKS
BISMARCK       CLEAR     32  29  88 E5        29.91F
MINOT          CLEAR     42  33  70 SW10      29.82F
JAMESTOWN      PTCLDY    41  35  79 SW6       29.90S
MINOT AFB      CLEAR     40  33  78 SW7       29.82S
GARRISON         N/A     39  35  86 CALM      29.86S
WILLISTON      CLEAR     35  31  85 S3        29.84F
DICKINSON      CLEAR     36  28  73 W8        29.87S
HETTINGER      CLEAR     31  24  75 CALM      29.93S
$$

 *****  OTHER AIRPORT OBSERVATIONS IN OUR AREA  *****

CITY           SKY/WX    TMP DP  RH WIND       PRES   REMARKS
WALHALLA         N/A     48  45  87 CALM      29.80R
GRAFTON AIRPOR FAIR      43  43 100 SW8       29.82S
VALLEY CITY AR FAIR      41  39  93 W8        29.90S
CANDO          FAIR      37  36  93 SW9       29.84F
CAVALIER APRT  FAIR      45  41  87 SW6       29.80S
GWINNER        SUNNY     39  39 100 SW14      29.94S
SHEYENNE NWR     N/A     37  36  95 SW6       29.95
ROLLA          FAIR      39  37  93 SW10      29.82S
 ***** THE ABOVE OBSERVATIONS ARE NON NWS ARE NOT QUALITY
       CONTROLLED AND MAY MIS-REPORT RAIN FOR SNOW...
$$

  *****  WEATHER ACROSS NORTHERN MINNESOTA  *****

CITY           SKY/WX    TMP DP  RH WIND       PRES   REMARKS
FLAG ISLAND    CLOUDY    48  46  93 S8        29.81R
WARROAD        CLOUDY    48  45  87 S5        29.84R
ROSEAU         CLOUDY    48  43  81 S10       29.83S
HALLOCK        CLEAR     43  39  87 SE9       29.82S
THF RVR FALLS  CLEAR     45  43  93 S9        29.87R
BAUDETTE       MOCLDY    47  45  93 SW8       29.85S
WASKISH        CLOUDY    48  48 100 CALM      29.88S
CROOKSTON      CLEAR     43  39  87 S9        29.88R
STEPHEN NDAWN    N/A     45  43  93 S6          N/A
GREENBUSH NDAW   N/A     45  43  93 S7          N/A
$$
  *****  WEATHER ACROSS CENTRAL AND WEST MINNESOTA  *****

CITY           SKY/WX    TMP DP  RH WIND       PRES   REMARKS
FOSSTON        CLOUDY    46  45  93 S9        29.90R
BEMIDJI        CLOUDY    47  47  98 S7        29.90S FOG
PARK RAPIDS    CLOUDY    49  48  97 S8        29.93S
ELBOW LAKE       N/A     40  40 100 SE6       29.95S FOG
WADENA         FOG       45  45 100 CALM      29.94S VSB<1/4
DETROIT LAKES  FOG       45  43  93 SE6       29.93S VSB 1/4
MOORHEAD       CLEAR     43  43 100 S9        29.92S
FERGUS FALLS   CLEAR     41  39  93 S5        29.95S FOG
MORRIS MN      FOG       37  37 100 SE5       29.95S VSB<1/4
STAPLES        CLOUDY    48  48 100 CALM      29.95R
$$
  *****  WEATHER ELSEWHERE ACROSS MINNESOTA  *****

CITY           SKY/WX    TMP DP  RH WIND       PRES   REMARKS
DULUTH         CLOUDY    48  44  86 S8        29.95S FOG
INTRNTL FALLS  CLOUDY    49  48  97 VRB6      29.89R
ELY            NOT AVBL
CLOQUET        CLOUDY    48  46  93 S5        29.96R FOG
WHEATON        CLEAR     39  37  93 S5        29.96S
BRAINERD       CLOUDY    50  50 100 SW7       29.96R
HIBBING        FOG       48  45  89 S5        29.93F VSB 3/4
ALEXANDRIA     PTCLDY    44  43  96 SW7       29.96F
SAINT CLOUD    CLOUDY    55  52  89 SW6       29.97R FOG
MINNEAPOLIS    CLOUDY    53  50  89 S7        29.99S
$$

  *****  WEATHER ACROSS SOUTH DAKOTA  *****

CITY           SKY/WX    TMP DP  RH WIND       PRES   REMARKS
SIOUX FALLS    FOG       42  41  96 CALM      30.01S VSB 1/4
BROOKINGS      NOT AVBL
WATERTOWN      MOCLDY    37  37 100 S6        29.98S FOG
HURON          CLEAR     35  34  96 SE6       29.99R
SISSETON         N/A     47  40  76 W8        29.93S
ABERDEEN       CLEAR     32  30  92 S7        29.96F
MITCHELL       CLEAR     40  39  97 S5        30.00S
PIERRE         CLEAR     36  33  89 CALM      29.97R
MOBRIDGE       CLEAR     42  37  82 SE6       29.92F
RAPID CITY     CLEAR     39  24  55 W8        29.98S
$$

  *****  SOME WEATHER IN NEARBY STATES *****

CITY           SKY/WX    TMP DP  RH WIND       PRES   REMARKS
GLASGOW MT     PTCLDY    37  31  78 E10       29.79F
GREAT FALLS MT CLOUDY    50  33  52 S13       29.80S
CHEYENNE WY    PTCLDY    38  28  67 CALM      30.16R
SCOTTSBLUFF NE PTCLDY    30  28  92 CALM      30.10S
OMAHA NE       CLOUDY    62  58  86 W3        30.04R FOG
DES MOINES IA  LGT RAIN  54  51  90 S7        30.04S
DAVENPORT IA   CLOUDY    45  37  73 S13       30.14F
CHICAGO IL     MOCLDY    38  36  92 S6        30.21S
EAU CLAIRE WI  LGT RAIN  47  45  93 S6        30.02F FOG
LA CROSSE WI   CLOUDY    50  46  86 S8        30.05F
$$

  *****  SOME NATIONAL WEATHER *****

CITY           SKY/WX    TMP DP  RH WIND       PRES   REMARKS
LA GUARDIA NY  LGT RAIN  51  47  86 N16G30    29.70R
RALEIGH NC     SUNNY     51  40  65 NW5       30.02S
ATLANTA GA     MOSUNNY   45  41  86 NW7       30.15R
NEW ORLEANS LA PTCLDY    63  50  62 E7        30.08R
OKLAHOMA CITY  CLOUDY    61  56  83 S6        30.12R
ALBUQUERQUE NM CLEAR     52  43  71 CALM      30.24R
SALT LAKE CITY MOCLDY    46  34  62 SE8       30.11F
LOS ANGELES CA CLEAR     63  57  81 CALM      29.94S
BOISE ID       CLOUDY    52  43  71 E13       30.01F
SEATTLE WA     LGT RAIN  52  48  86 S14G23    29.74R
$$

*** WEATHER ACROSS MANITOBA...SASKATCHEWAN AND ONTARIO ***
                ***ONTARIO***

CITY           SKY/WX    TMP DP  RH WIND       PRES   REMARKS
GERALDTON      MOCLDY    39  39 100 S7        30.01F
THUNDER BAY    NOT AVBL
SIOUX LOOKOUT  NOT AVBL
TORONTO        SUNNY     45  39  81 N14       30.17S
BIG TROUT LK   CLOUDY    46  41  81 S8        29.78S
PICKLE LAKE    CLOUDY    45  36  70 S9        29.84F
DRYDEN         CLOUDY    48  46  93 S8        29.84S FOG
KENORA         CLOUDY    50  48  93 S12G18    29.81S
$$
                *** MANITOBA***

CITY           SKY/WX    TMP DP  RH WIND       PRES   REMARKS
BRANDON        PTCLDY    37  36  93 SW7       29.78R
DAUPHIN        CLOUDY    52  46  82 W14       29.72R
ISLAND LAKE    LGT RAIN  50  50 100 SE5       29.64S FOG
PILOT MOUND      N/A     36  36 100 SW6         N/A
THE PAS        FLURRIES  46  43  87 N7        29.69
THOMPSON       LGT RAIN  37  37 100 NE10      29.76S
WINNIPEG       MOCLDY    50  46  87 SW10      29.76S
LYNN LAKE      FOG       36  36 100 E12       29.79S VSB 1/2
CHURCHILL      CLOUDY    37  36  93 E15G22    29.95S
GILLAM         LGT RAIN  37  36  93 NE14G22   29.79S
$$
                ***SASKATCHEWAN***

CITY           SKY/WX    TMP DP  RH WIND       PRES   REMARKS
ESTEVAN        PTCLDY    36  32  87 S8        29.80S
KINDERSLEY     NOT AVBL
LLOYDMINSTER   MOCLDY    41  36  81 SE9       29.51F
PRINCE ALBERT  NOT AVBL
REGINA         MOCLDY    32  30  93 SE7       29.75S
YORKTON        CLEAR     41  39  93 SW7       29.73S
N. BATTLEFORD  MOCLDY    41  36  81 E8        29.60F
LA RONGE       NOT AVBL
SASKATOON      MOCLDY    37  36  93 S7        29.68F
SWIFT CURRENT  PTCLDY    46  36  66 SW18      29.67F
$$
NOTE: THESE ARE AUTOMATED STATIONS WITH LIMITED QUALITY CONTROL
      "FAIR" INDICATES FEW OR NO CLOUDS BELOW 12,000 FEET WITH NO
      SIGNIFICANT WEATHER AND/OR OBSTRUCTIONS TO VISIBILITY.
      SKY/WX - SKY CONDITION AND SIGNIFICANT WEATHER.
      TMP - AIR TEMPERATURE.    DP   - DEWPOINT TEMPERATURE.
      RH  - RELATIVE HUMIDITY.  PRES - PRESSURE.
      HX  - HEAT INDEX.         WCI  - WIND CHILL INDEX.
$



USA.gov is the U.S. government's official web portal to all federal, state and local government web resources and services.